This is the latest recevied weather packets stored in our database for station/object EA5JUX. If no packets are shown the sender has not sent any weather packets the latest 10 day(s).
| Time | Temp. | Humidity | Pressure | Rain* | Wind** | Luminosity | Snow |
|---|---|---|---|---|---|---|---|
| 1787620620 | 25.56° C | 74% | 1012.7 hPa | 0 mm | - | - | - |
| 1787620322 | 25.56° C | 74% | 1012.7 hPa | 0 mm | - | - | - |
| 1787620001 | 25° C | 75% | 1012.9 hPa | 0 mm | - | - | - |
| 1787619702 | 25° C | 76% | 1012.8 hPa | 0 mm | - | - | - |
| 1787619402 | 25.56° C | 76% | 1012.7 hPa | 0 mm | - | - | - |
| 1787619102 | 25.56° C | 76% | 1012.9 hPa | 0 mm | - | - | - |
| 1787618802 | 25.56° C | 77% | 1013 hPa | 0 mm | - | - | - |
| 1787618502 | 26.11° C | 77% | 1012.9 hPa | 0 mm | - | - | - |
| 1787618202 | 26.67° C | 77% | 1012.9 hPa | 0 mm | - | - | - |
| 1787617902 | 26.67° C | 76% | 1012.9 hPa | 0 mm | - | - | - |
| 1787617602 | 26.11° C | 74% | 1012.6 hPa | 0 mm | - | - | - |
| 1787617302 | 25° C | 74% | 1012.7 hPa | 0 mm | - | - | - |
| 1787617002 | 25.56° C | 75% | 1012.7 hPa | 0 mm | - | - | - |
| 1787616701 | 27.22° C | 75% | 1012.8 hPa | 0 mm | - | - | - |
| 1787616411 | 27.22° C | 70% | 1012.8 hPa | 0 mm | - | - | - |
| 1787616102 | 27.22° C | 70% | 1012.8 hPa | 0 mm | - | - | - |
| 1787615810 | 27.22° C | 67% | 1012.8 hPa | 0 mm | - | - | - |
| 1787615502 | 26.67° C | 57% | 1012.7 hPa | 0 mm | - | - | - |
| 1787615202 | 26.67° C | 57% | 1013 hPa | 0 mm | - | - | - |
| 1787614917 | 26.67° C | 58% | 1013 hPa | 0 mm | - | - | - |
| 1787614602 | 26.67° C | 60% | 1012.8 hPa | 0 mm | - | - | - |
| 1787614302 | 26.67° C | 60% | 1012.9 hPa | 0 mm | - | - | - |
| 1787614002 | 26.67° C | 60% | 1012.8 hPa | 0 mm | - | - | - |
| 1787613702 | 26.67° C | 61% | 1012.7 hPa | 0 mm | - | - | - |
| 1787613402 | 26.67° C | 61% | 1012.6 hPa | 0 mm | - | - | - |
* Rain latest hour (hover to see other rain measurements)
** Current wind speed in m/s (hover to see current wind gust speed)